Location: Unspecified
(0.0000°N, 0.0000°E)
Time: 20:04:28
(UTC+02:00)

CZ-4B DEB - Visible Passes

Search period start: 05 May 2016 00:00
Search period end: 15 May 2016 00:00
Orbit: 440 x 447 km, 97.5° (Epoch: 04 May)

Date Brightness Start Highest point End Pass type
(mag) Time Alt. Az. Time Alt. Az. Time Alt. Az.
05 May 4.4 21:42:54 35° NW 21:42:54 35° NW 21:45:07 10° NNW visible
06 May 3.9 21:05:31 28° ENE 21:05:31 28° ENE 21:07:55 10° NNE visible
07 May 5.6 22:01:36 19° WNW 22:01:36 19° WNW 22:03:04 10° NW visible
08 May 3.4 21:24:09 47° NNE 21:24:09 47° NNE 21:26:41 10° N visible
09 May 4.8 20:46:39 14° ENE 20:46:39 14° ENE 20:48:12 10° NE visible
10 May 4.3 21:42:38 36° NW 21:42:38 36° NW 21:44:53 10° NNW visible
11 May 4.0 21:05:03 27° ENE 21:05:03 27° ENE 21:07:26 10° NNE visible
12 May 5.5 22:00:56 20° WNW 22:00:56 20° WNW 22:02:29 10° NW visible
13 May 3.4 21:23:17 47° NNE 21:23:17 47° NNE 21:25:51 10° N visible
14 May 4.9 20:45:35 13° ENE 20:45:35 13° ENE 20:47:01 10° NE visible
14 May 6.4 22:19:05 10° WNW 22:19:05 10° WNW 22:19:07 10° WNW visible
